Temperature
13 14 14 15 13 12 13 14 17 19 20 21 22 21 20 19 20 19 18 18 18 17 17 17 17 16 16 16 16 16 16 16 16 16 16 16 16 16 16 16 16 16 16 16 16 15 15 15 15
13 13 14 14 12 12 13 15 17 19 21 22 21 20 19 18 18 18 17 17 18 18 17 17 17 16 16 16 16 16 16 16 16 16 16 16 16 16 16 16 16 16 16 16 16 15 15 15 15
12 13 13 12 12 13 14 16 17 19 21 21 21 20 19 18 18 17 18 17 18 17 17 17 16 16 16 16 16 16 16 16 16 16 16 16 16 16 16 16 16 16 16 16 16 15 15 15 15
12 12 13 11 12 13 15 17 18 19 21 21 20 18 18 18 18 19 18 18 17 17 17 17 16 16 16 16 16 16 16 16 16 16 16 16 16 16 16 16 16 16 16 16 16 16 15 15 15
11 12 11 11 12 14 15 17 18 19 19 20 19 17 18 19 19 19 18 18 18 17 17 16 16 16 16 16 16 16 16 16 16 16 16 16 16 16 16 16 16 16 16 16 16 16 15 15 15
11 10 11 11 12 14 15 17 18 18 19 19 18 17 17 18 19 18 18 18 18 17 16 16 16 16 16 16 16 16 16 16 16 16 16 16 16 17 16 16 16 16 16 16 16 16 16 16 16
10 10 11 11 12 14 16 18 18 18 18 19 19 16 16 17 18 18 18 17 17 17 16 16 15 15 15 15 16 16 16 16 16 16 16 17 17 17 17 17 16 16 16 16 16 16 16 16 16
10 10 11 11 12 14 16 18 18 18 18 19 19 16 16 17 17 17 17 17 17 16 16 15 15 15 15 15 16 16 16 16 17 17 17 17 17 17 17 17 17 17 17 16 16 16 16 16 16
10 9 10 11 12 14 16 16 17 18 18 18 18 18 17 17 17 16 16 16 16 16 16 15 15 15 15 15 15 16 16 16 16 17 17 17 17 17 17 17 17 17 17 16 16 16 16 16 16
9 9 11 12 13 13 15 15 16 17 16 16 17 17 17 17 16 16 16 16 16 16 16 15 15 15 15 15 15 16 16 16 16 17 17 17 17 17 17 17 17 17 17 17 16 16 16 16 15
9 9 11 12 12 13 14 14 15 15 15 15 16 17 16 16 16 16 16 16 16 16 16 15 15 15 15 15 15 15 16 16 16 16 16 17 17 17 17 17 17 17 17 17 16 16 16 16 15
9 9 10 11 12 12 13 13 13 14 15 16 17 17 16 16 16 16 16 16 16 16 16 16 15 15 15 15 16 16 16 16 16 16 16 17 17 17 17 17 17 17 16 16 16 16 16 16 15
9 9 10 11 11 12 12 12 13 13 15 15 16 16 16 16 16 16 16 16 16 16 16 15 15 15 15 15 16 16 16 16 16 16 16 16 17 17 16 16 16 16 16 16 16 16 16 15 15
8 9 9 10 11 11 12 12 13 13 14 15 15 16 16 16 16 16 16 16 16 16 16 16 16 15 15 15 15 16 16 16 16 16 16 16 16 16 16 16 16 16 16 16 16 15 15 15 15
9 9 9 9 10 11 12 12 12 13 14 14 14 15 16 16 16 16 16 16 16 16 16 16 15 15 15 16 16 16 16 15 15 15 16 16 16 16 16 16 16 16 15 15 15 15 15 15 15
8 8 8 9 10 11 11 11 12 13 13 13 14 14 15 15 16 16 16 16 16 16 16 16 16 15 16 16 16 15 15 15 15 15 15 15 15 15 15 15 15 15 15 15 15 15 15 14 14
7 7 8 9 10 10 10 10 12 12 12 12 13 14 14 15 15 16 16 16 16 16 16 16 16 16 16 16 16 15 15 15 15 15 15 15 15 15 15 15 15 15 15 15 14 14 14 14 14
6 7 8 8 9 10 9 10 11 12 12 12 13 13 14 14 15 16 16 16 16 16 16 16 16 16 16 15 15 15 15 15 15 15 15 15 15 15 15 15 14 14 14 14 14 14 14 14 14
7 7 7 8 9 9 9 10 10 11 11 11 12 13 13 14 15 16 16 16 16 16 16 16 15 15 15 15 15 15 15 15 15 15 15 15 14 14 14 14 14 14 14 14 14 14 13 13 13
7 7 7 8 9 9 9 9 10 11 11 12 12 12 13 14 15 15 16 16 16 16 16 16 16 15 15 15 15 15 15 15 15 15 14 14 14 14 14 14 14 14 14 14 14 13 13 13 13
7 7 7 8 9 9 9 9 10 10 11 12 13 13 14 14 15 15 16 16 16 16 16 16 16 16 16 15 15 15 15 15 14 14 14 14 14 14 14 14 14 14 14 14 14 13 13 13 13
7 7 8 8 7 7 8 8 9 10 11 11 12 13 14 15 15 15 16 16 16 16 16 16 16 16 16 15 15 15 15 15 15 15 15 14 14 14 14 14 14 14 14 13 13 13 13 13 13
7 8 8 8 7 7 7 7 8 9 10 11 11 13 14 15 15 16 16 16 16 16 16 16 16 16 16 15 15 15 15 15 15 15 14 14 14 14 14 14 14 13 13 13 13 13 13 12 12
7 7 7 6 6 6 7 7 8 8 10 11 11 13 15 15 15 16 16 16 16 16 16 16 16 16 16 15 15 15 15 15 15 14 14 14 14 14 14 14 13 13 13 13 13 12 12 12 12
7 5 5 5 6 6 7 7 8 9 10 11 12 13 15 15 15 16 16 16 16 16 16 16 16 16 16 15 15 15 15 15 14 14 14 14 14 14 14 13 13 13 13 13 12 12 12 12 12
6 5 5 6 6 6 7 7 8 10 10 12 13 14 14 14 15 15 16 16 16 16 16 16 15 15 15 15 15 15 14 14 14 14 14 14 14 14 13 13 13 13 13 12 12 12 12 12 11
6 5 6 5 5 6 7 7 9 10 10 10 11 12 13 14 14 15 15 15 15 15 15 15 15 15 15 15 15 14 14 14 14 14 13 13 13 13 13 13 13 12 12 12 12 12 12 11 11
6 6 5 5 6 6 7 7 8 9 9 9 9 10 12 13 13 14 14 14 14 15 15 15 15 14 14 14 14 14 14 14 14 13 13 13 13 13 12 12 12 12 12 12 11 11 11 11 10
6 6 6 5 5 6 6 7 8 8 8 8 9 10 11 12 13 13 13 14 14 14 14 14 14 14 14 13 13 13 13 13 13 13 13 12 12 12 12 12 11 11 11 11 11 10 10 10 9
6 6 5 5 5 5 5 6 8 7 8 8 9 10 11 12 12 12 12 13 13 13 13 13 13 13 13 13 13 13 13 12 12 12 12 12 12 11 11 11 11 10 10 10 10 9 9 8 8
Wind_Speed
9 7 1 2 3 2 7 7 5 4 3 2 2 5 9 5 4 5 6 15 19 18 23 25 25 24 23 21 20 19 19 18 18 18 18 19 19 20 20 20 20 20 20 20 20 19 19 18 17
6 3 2 3 5 6 7 7 8 7 5 3 2 3 6 4 4 9 9 17 21 20 23 24 26 24 23 22 21 20 19 18 18 19 19 19 20 20 20 20 20 20 19 19 19 18 18 17 16
4 1 2 4 6 10 8 7 10 8 6 3 2 3 4 6 7 6 11 22 20 18 22 25 26 25 23 22 20 20 19 19 19 19 19 19 20 20 20 20 19 19 19 18 18 17 16 15 15
1 1 1 4 11 10 8 5 5 6 3 1 4 4 2 2 5 10 20 21 19 15 21 25 26 24 23 22 20 20 19 19 19 19 19 20 20 20 20 19 19 18 18 17 17 16 14 14 15
1 2 4 6 11 9 8 6 3 4 2 1 4 5 2 5 13 22 21 21 20 16 21 24 25 24 23 21 20 20 19 19 19 19 20 20 20 19 19 18 18 17 17 16 15 14 13 13 14
1 2 6 10 11 8 8 6 4 4 3 2 3 5 2 3 17 21 20 19 18 17 19 23 25 24 23 21 20 20 19 19 19 20 20 20 20 19 18 17 17 16 16 15 14 12 11 11 11
4 4 6 8 8 8 9 6 6 6 4 3 5 6 4 5 13 19 19 18 16 17 16 18 21 22 22 21 20 20 19 19 19 20 20 20 19 18 18 16 16 15 15 14 12 11 10 9 9
3 3 5 6 7 8 6 4 4 4 3 1 4 9 8 9 13 17 18 17 16 14 13 14 17 19 19 19 20 20 19 19 20 20 20 20 19 18 17 16 15 14 13 12 11 9 8 6 6
2 3 7 7 6 5 2 1 2 1 1 2 1 4 8 14 17 19 18 17 17 16 13 13 14 16 17 18 18 19 19 20 20 20 21 19 16 16 15 15 14 13 12 11 9 7 6 4 3
4 5 6 3 2 2 1 1 2 2 2 2 4 5 9 13 17 21 22 21 20 19 17 13 12 14 15 15 16 16 16 18 17 18 18 16 15 15 14 15 14 13 12 10 8 6 4 2 1
4 5 3 2 2 3 2 2 3 2 1 3 7 9 10 12 14 18 20 20 20 19 17 15 13 14 13 12 14 12 13 15 16 17 17 15 14 12 12 12 12 11 10 9 7 6 4 4 4
3 4 4 4 3 3 2 2 3 0 3 3 7 10 9 12 14 15 18 18 18 18 17 16 14 13 13 14 12 12 11 12 12 15 16 14 11 10 11 10 11 11 10 8 7 6 6 7 7
2 2 4 5 5 4 2 1 2 3 3 2 2 6 9 10 11 10 12 14 17 17 17 16 15 14 13 12 11 12 11 12 14 15 16 16 11 9 10 10 11 11 10 9 7 7 7 7 7
2 1 2 3 4 3 2 3 1 3 2 3 2 5 7 8 9 9 11 12 14 16 17 16 16 15 14 10 9 10 13 14 14 15 17 18 15 13 10 8 9 10 12 12 10 8 7 5 5
1 0 1 2 1 2 1 4 5 3 2 1 1 3 5 6 7 9 11 12 14 15 16 17 17 15 15 13 12 12 13 14 13 14 17 18 17 15 12 8 8 10 13 12 9 7 5 3 3
1 2 1 2 1 1 2 6 6 1 0 2 3 3 5 6 7 8 9 9 11 13 15 16 16 16 15 12 11 11 13 14 13 15 16 17 17 16 12 7 7 11 11 9 5 3 3 2 2
1 2 3 2 2 2 3 5 4 1 2 4 5 5 5 7 7 8 9 9 10 12 14 14 14 15 15 12 10 10 11 11 12 14 14 15 16 16 12 8 8 10 7 5 3 3 3 3 3
3 3 3 3 3 3 4 5 5 3 4 6 6 6 7 8 10 8 8 9 10 10 12 13 13 14 13 10 8 7 7 7 10 11 12 14 14 14 12 8 8 9 4 3 3 3 3 2 3
1 2 3 3 3 3 6 7 7 6 5 7 7 8 9 10 9 8 8 9 9 10 11 12 13 12 11 9 9 8 8 7 6 7 12 13 13 13 11 6 6 6 5 5 5 3 3 3 2
1 1 1 2 3 3 4 7 8 9 9 9 11 11 11 10 9 9 9 8 9 11 12 12 13 13 12 10 9 6 6 5 6 6 9 12 12 12 11 8 5 5 4 4 4 4 3 3 3
2 3 2 2 1 1 1 5 7 8 9 9 10 11 12 13 13 11 11 10 10 11 12 12 12 12 12 10 6 5 4 3 4 5 6 7 11 11 10 9 7 5 5 5 4 4 5 4 3
2 4 3 2 2 2 3 4 6 7 9 11 12 11 12 12 12 11 12 11 11 12 11 11 12 12 11 11 10 10 8 7 7 6 6 5 9 10 10 9 7 5 4 4 4 4 3 4 3
2 1 2 1 2 1 2 3 7 5 9 13 13 13 13 12 12 12 12 12 11 10 10 10 11 11 11 11 12 11 9 7 5 5 6 6 5 7 8 8 6 5 4 4 3 3 3 4 4
1 3 3 2 2 3 6 5 6 6 11 10 12 12 13 12 11 11 9 8 8 8 8 8 10 10 10 11 11 11 11 9 8 7 8 6 4 3 5 7 6 5 4 4 3 3 4 4 4
3 4 2 1 1 5 5 5 9 9 9 12 13 13 12 10 10 10 9 9 9 9 8 8 10 9 9 10 10 11 11 11 10 9 9 8 5 4 5 4 4 4 4 4 3 3 3 3 3
2 4 4 3 4 3 3 7 8 8 6 7 8 8 7 7 7 8 10 10 10 10 9 9 9 8 8 9 9 8 9 7 6 7 7 7 5 5 5 5 5 5 4 4 3 3 2 2 3
3 3 3 3 1 2 4 6 7 5 4 3 1 3 4 4 5 6 6 7 8 9 9 9 9 7 7 8 7 7 8 7 7 6 6 5 5 4 5 5 5 4 4 4 3 2 2 2 2
2 2 2 2 2 3 3 3 4 6 5 3 1 2 3 2 2 3 3 4 5 6 6 7 7 7 6 6 6 6 6 7 7 7 7 6 6 5 6 5 5 4 3 3 3 2 2 2 2
2 1 2 2 2 2 2 5 3 6 5 3 2 1 2 3 3 2 2 2 3 4 5 6 6 7 6 6 6 6 6 6 7 7 7 7 6 6 6 6 5 4 3 3 3 2 2 2 1
4 4 3 3 3 3 2 6 6 5 3 2 2 1 0 2 2 2 3 3 4 4 5 6 6 6 6 6 7 7 6 7 7 7 6 6 7 6 5 5 5 4 4 3 3 2 2 2 2
Wind_Direction
307 318 21 73 90 136 222 233 231 234 218 215 167 131 122 124 160 158 125 137 136 144 147 145 142 139 136 133 130 128 125 122 118 116 116 116 115 112 111 108 106 105 103 103 103 102 100 96 92
318 323 68 103 158 195 229 226 233 229 212 174 121 102 96 91 91 111 128 142 141 144 145 145 142 140 138 136 134 131 129 126 121 119 118 117 116 113 111 108 107 106 105 105 104 103 99 93 87
314 258 154 145 185 203 214 213 221 241 245 204 113 59 108 121 123 126 145 143 140 142 145 146 143 142 141 139 137 134 132 128 125 122 120 118 117 115 112 110 109 108 108 108 107 104 98 90 84
16 97 144 180 213 218 211 206 201 223 255 219 125 83 45 95 146 135 140 141 139 140 144 146 144 143 143 141 139 137 134 131 128 126 123 121 119 117 115 114 113 112 112 112 110 105 98 90 85
82 167 194 212 224 234 234 242 228 211 216 171 119 115 49 349 125 133 140 142 142 141 144 147 145 145 145 143 141 139 137 135 133 130 128 125 122 121 120 119 118 117 116 116 114 109 100 93 87
170 182 193 211 223 237 244 237 231 251 236 194 123 116 106 105 132 139 143 143 144 145 146 148 147 147 146 145 142 141 140 139 137 135 132 129 127 127 126 124 122 122 120 118 117 113 105 96 89
183 187 200 205 217 233 239 228 210 227 234 202 143 123 135 139 143 142 143 141 143 145 146 148 149 149 148 146 145 144 143 142 141 138 136 133 132 132 132 129 128 126 125 123 121 118 111 101 92
184 187 198 201 203 228 241 233 210 201 219 159 132 142 160 162 144 140 140 141 144 146 148 148 149 148 147 147 147 146 145 143 141 138 138 137 136 135 135 134 132 131 131 130 130 127 121 109 95
136 207 204 199 198 225 229 206 298 331 126 50 74 157 153 143 139 140 144 146 152 154 154 152 149 148 148 148 149 147 147 145 142 142 141 140 139 138 138 140 140 139 140 141 142 142 139 126 99
163 211 215 219 215 239 278 57 309 35 61 53 52 80 121 132 145 151 156 158 161 163 161 159 155 153 152 152 150 148 149 149 147 149 148 148 148 148 149 150 151 151 152 154 159 163 165 172 240
183 215 250 295 327 308 327 351 338 107 133 165 153 147 144 142 149 160 162 164 166 165 164 165 161 159 157 152 154 154 154 156 156 158 158 157 156 157 158 159 162 164 166 171 180 188 204 226 250
196 240 259 290 322 339 343 359 349 263 238 244 174 159 157 157 160 165 167 167 165 166 169 168 166 163 162 159 162 162 162 166 168 170 167 163 162 165 168 171 175 177 182 189 198 209 222 238 252
205 250 272 290 315 323 341 318 300 279 306 344 179 162 170 170 167 166 165 166 166 168 171 171 169 168 167 165 168 170 173 177 179 179 178 173 169 172 177 183 185 191 195 200 209 219 229 241 247
228 205 276 306 311 335 326 285 282 271 9 35 193 189 189 184 173 165 166 170 172 171 173 174 174 173 171 171 173 175 179 182 183 183 183 180 177 178 179 185 191 199 205 209 212 217 221 227 226
287 89 348 282 291 322 8 268 230 252 38 24 289 242 218 208 189 180 178 178 177 175 172 174 177 176 175 176 178 179 181 180 184 186 185 184 181 180 181 184 191 200 205 208 210 216 216 223 226
30 114 213 255 195 244 153 239 245 257 134 251 269 271 248 234 213 197 186 184 183 175 172 175 178 179 179 178 178 179 180 178 182 183 183 184 184 183 180 181 191 196 195 194 190 188 193 212 221
61 166 191 239 192 168 189 253 275 267 228 246 255 257 247 243 238 215 192 186 186 179 174 176 176 180 182 179 176 176 178 178 178 179 180 182 183 183 180 181 187 186 183 187 187 185 183 203 226
178 178 177 201 192 175 205 255 280 266 236 247 258 259 247 235 237 223 202 190 186 183 177 178 177 180 181 176 170 169 172 174 174 178 181 181 183 183 180 184 188 183 177 188 188 190 188 196 210
171 177 185 217 203 184 211 235 253 252 247 238 247 248 246 241 244 238 217 194 184 182 181 183 181 181 176 175 176 176 180 178 176 179 182 183 182 182 180 183 186 185 188 195 192 184 192 211 179
192 174 211 257 209 196 226 243 238 231 231 227 227 233 234 236 234 228 225 203 190 186 185 186 185 182 181 182 181 177 171 175 179 176 181 184 182 181 184 182 182 185 187 190 189 180 182 208 180
216 183 188 217 255 227 216 272 240 234 226 230 228 225 224 222 221 216 214 212 197 191 187 187 189 187 185 181 166 146 132 136 164 180 183 185 183 182 181 184 180 177 181 192 195 188 188 208 215
229 218 204 191 138 233 184 246 257 233 236 233 231 228 228 222 216 211 208 208 203 200 192 184 184 185 184 177 174 172 178 185 191 184 181 177 178 177 179 178 175 170 173 184 196 190 191 191 214
202 185 173 177 162 234 204 218 269 241 234 235 232 228 228 222 213 210 207 204 202 196 190 185 179 182 181 179 180 182 187 189 171 162 167 174 169 169 172 169 165 164 167 179 190 194 198 204 210
116 64 64 63 104 233 207 200 264 225 220 228 230 227 226 222 215 212 207 197 195 190 187 182 177 180 180 179 181 184 185 177 165 171 177 174 166 163 160 156 154 158 160 166 184 194 198 209 215
77 94 73 38 206 242 199 203 249 244 233 224 227 228 226 219 211 206 198 192 188 184 183 179 177 180 180 179 182 186 186 183 182 182 181 175 174 179 181 162 159 158 161 160 162 186 205 208 211
173 143 161 183 204 263 208 225 254 266 263 245 233 224 216 211 206 203 199 192 189 186 180 175 176 176 176 177 179 180 180 181 185 181 175 175 178 176 166 158 156 154 153 152 157 182 199 200 210
157 191 194 152 201 252 249 271 302 324 334 327 251 177 184 195 195 195 192 188 186 183 181 177 173 170 171 173 168 167 166 165 165 161 157 157 157 154 150 150 153 152 148 148 156 174 188 189 208
166 163 126 149 180 233 266 269 276 302 304 324 356 177 179 147 150 168 179 183 181 177 171 165 163 163 160 158 159 160 158 158 156 151 155 155 151 145 144 144 143 140 136 134 138 147 161 170 206
169 199 195 179 192 193 241 265 269 280 285 301 292 239 181 151 157 168 165 156 146 144 149 152 155 150 149 150 145 141 143 142 141 145 150 149 143 145 146 145 141 139 137 134 134 143 159 185 208
192 205 182 188 231 209 214 271 302 312 314 333 331 342 134 142 144 146 143 138 138 143 151 154 152 148 147 143 136 135 134 133 133 133 133 133 132 131 135 131 131 137 135 131 141 156 168 189 206
Height
1511 1513 1515 1517 1520 1526 1525 1516 1506 1502 1501 1499 1499 1499 1500 1505 1509 1514 1511 1513 1518 1523 1528 1532 1535 1538 1540 1541 1542 1544 1545 1546 1547 1548 1550 1551 1552 1554 1555 1556 1558 1559 1560 1561 1562 1563 1564 1565 1565
1509 1511 1514 1514 1519 1526 1520 1509 1504 1499 1497 1498 1499 1499 1500 1503 1505 1506 1509 1514 1519 1523 1528 1532 1535 1538 1540 1542 1543 1545 1546 1547 1549 1550 1551 1553 1554 1555 1557 1558 1559 1561 1562 1563 1564 1565 1566 1567 1567
1507 1509 1511 1512 1515 1516 1510 1501 1499 1496 1496 1497 1498 1499 1500 1502 1504 1506 1509 1515 1520 1524 1528 1532 1536 1538 1540 1542 1544 1545 1547 1549 1550 1551 1553 1554 1556 1557 1558 1560 1561 1562 1564 1565 1566 1567 1568 1569 1569
1506 1508 1509 1511 1509 1503 1499 1495 1495 1496 1496 1496 1497 1500 1501 1503 1505 1506 1510 1515 1520 1524 1529 1533 1536 1539 1541 1543 1545 1546 1548 1550 1551 1553 1554 1556 1557 1559 1560 1562 1563 1564 1566 1567 1568 1569 1570 1571 1572
1504 1505 1507 1507 1504 1498 1495 1493 1494 1495 1495 1496 1496 1499 1501 1503 1505 1508 1512 1516 1520 1525 1529 1533 1536 1539 1541 1543 1545 1547 1549 1551 1552 1554 1556 1557 1559 1560 1562 1563 1565 1566 1568 1569 1570 1572 1572 1573 1574
1503 1502 1504 1504 1500 1495 1493 1492 1494 1494 1494 1495 1496 1498 1502 1503 1505 1509 1513 1518 1522 1525 1529 1534 1537 1539 1542 1544 1546 1548 1550 1552 1554 1555 1557 1559 1560 1562 1564 1565 1567 1568 1570 1571 1572 1574 1574 1575 1576
1500 1500 1499 1499 1498 1495 1491 1491 1493 1492 1493 1494 1495 1498 1502 1505 1507 1510 1514 1519 1523 1526 1530 1534 1537 1540 1542 1545 1547 1549 1551 1553 1555 1556 1558 1560 1562 1564 1565 1567 1568 1570 1571 1573 1574 1575 1576 1577 1577
1496 1498 1497 1498 1496 1493 1489 1490 1490 1491 1492 1493 1494 1495 1500 1504 1507 1511 1515 1520 1524 1527 1531 1534 1537 1540 1542 1545 1547 1549 1551 1554 1556 1558 1559 1561 1563 1565 1567 1568 1570 1571 1573 1574 1575 1576 1577 1578 1579
1495 1499 1496 1494 1493 1490 1488 1490 1490 1490 1490 1491 1492 1493 1496 1501 1506 1510 1515 1520 1524 1527 1531 1534 1537 1540 1542 1545 1547 1549 1552 1554 1556 1558 1560 1562 1564 1566 1567 1569 1571 1573 1574 1575 1576 1577 1578 1579 1579
1494 1496 1492 1490 1489 1489 1488 1490 1490 1490 1490 1491 1492 1493 1497 1500 1505 1508 1512 1516 1521 1525 1529 1533 1536 1539 1542 1544 1547 1549 1552 1554 1556 1559 1561 1563 1565 1566 1568 1570 1572 1573 1575 1576 1577 1578 1579 1579 1580
1492 1493 1490 1489 1489 1489 1488 1490 1490 1490 1492 1492 1492 1493 1497 1500 1504 1507 1511 1515 1519 1523 1527 1532 1535 1539 1541 1544 1546 1549 1551 1554 1556 1559 1561 1563 1565 1567 1568 1570 1571 1573 1574 1576 1577 1578 1579 1579 1580
1491 1490 1490 1489 1489 1489 1489 1490 1491 1491 1492 1492 1492 1493 1496 1499 1502 1506 1510 1514 1519 1523 1526 1530 1534 1537 1541 1543 1546 1548 1551 1553 1556 1558 1560 1562 1564 1566 1568 1570 1571 1573 1574 1575 1576 1577 1578 1579 1579
1490 1490 1490 1489 1489 1490 1490 1491 1491 1490 1491 1491 1493 1494 1496 1499 1502 1506 1510 1514 1517 1521 1525 1529 1533 1536 1539 1542 1545 1547 1550 1553 1555 1557 1559 1562 1564 1566 1567 1569 1571 1572 1573 1575 1576 1576 1577 1578 1578
1489 1489 1490 1489 1489 1489 1490 1490 1491 1490 1491 1492 1493 1494 1496 1498 1501 1504 1508 1512 1516 1519 1523 1527 1531 1535 1538 1541 1544 1546 1549 1552 1554 1556 1558 1561 1563 1565 1566 1568 1570 1571 1572 1574 1575 1576 1576 1577 1577
1489 1490 1490 1490 1489 1490 1492 1492 1490 1490 1491 1492 1494 1494 1496 1498 1500 1503 1506 1510 1514 1518 1522 1525 1529 1533 1536 1539 1543 1545 1548 1550 1553 1555 1557 1559 1561 1563 1565 1567 1568 1570 1571 1572 1573 1574 1574 1575 1575
1489 1491 1494 1491 1491 1491 1496 1494 1489 1490 1491 1492 1494 1495 1496 1498 1500 1502 1505 1509 1512 1516 1519 1523 1527 1531 1534 1537 1541 1543 1546 1549 1551 1554 1556 1558 1560 1562 1564 1565 1567 1568 1569 1570 1571 1572 1573 1573 1573
1493 1495 1494 1493 1491 1492 1494 1493 1489 1489 1491 1492 1493 1494 1495 1497 1499 1501 1504 1507 1510 1513 1517 1520 1524 1528 1531 1535 1538 1541 1544 1547 1549 1552 1554 1556 1558 1560 1562 1563 1565 1566 1567 1568 1569 1570 1570 1571 1571
1496 1495 1494 1494 1492 1492 1494 1493 1489 1489 1490 1491 1492 1493 1495 1496 1497 1500 1502 1505 1509 1512 1515 1518 1521 1525 1529 1532 1535 1539 1542 1544 1547 1549 1551 1553 1555 1557 1559 1561 1562 1564 1565 1566 1566 1567 1568 1568 1569
1494 1493 1494 1493 1491 1492 1493 1492 1490 1489 1490 1491 1491 1492 1493 1494 1496 1498 1500 1503 1506 1509 1512 1516 1518 1521 1525 1528 1531 1534 1537 1540 1543 1546 1548 1551 1553 1555 1556 1558 1559 1561 1562 1563 1564 1564 1565 1565 1566
1493 1495 1495 1493 1490 1491 1493 1492 1489 1488 1489 1489 1489 1490 1491 1492 1494 1496 1498 1501 1503 1506 1509 1512 1515 1518 1521 1524 1527 1531 1534 1537 1540 1542 1545 1548 1550 1551 1553 1555 1556 1558 1559 1560 1560 1561 1561 1562 1563
1493 1495 1495 1494 1491 1490 1492 1492 1488 1484 1484 1485 1485 1486 1486 1488 1490 1492 1495 1497 1500 1503 1505 1508 1511 1514 1518 1521 1525 1528 1531 1534 1537 1538 1541 1544 1546 1548 1550 1552 1553 1554 1555 1556 1557 1558 1558 1558 1559
1493 1491 1491 1492 1495 1497 1495 1498 1488 1482 1480 1480 1480 1481 1482 1484 1486 1488 1491 1493 1496 1499 1502 1505 1508 1511 1515 1518 1521 1523 1525 1528 1531 1534 1537 1540 1542 1544 1546 1548 1549 1550 1551 1552 1553 1554 1554 1555 1554
1492 1490 1491 1492 1495 1499 1497 1499 1490 1481 1479 1475 1474 1475 1477 1479 1481 1484 1487 1490 1493 1496 1499 1502 1505 1508 1511 1514 1517 1520 1523 1525 1528 1531 1534 1536 1538 1540 1542 1544 1545 1546 1547 1548 1549 1550 1550 1550 1550
1490 1492 1493 1496 1498 1502 1495 1497 1489 1480 1472 1469 1468 1469 1471 1474 1477 1480 1483 1486 1489 1492 1495 1498 1501 1505 1508 1511 1513 1516 1519 1521 1524 1527 1529 1532 1534 1537 1538 1540 1541 1542 1543 1543 1545 1545 1546 1546 1546
1492 1499 1504 1504 1504 1499 1491 1492 1483 1469 1465 1463 1463 1464 1466 1469 1472 1475 1478 1482 1485 1488 1491 1495 1498 1501 1504 1506 1509 1512 1515 1518 1521 1523 1525 1528 1530 1533 1534 1535 1537 1538 1538 1539 1540 1541 1541 1541 1541
1494 1497 1504 1504 1502 1498 1490 1489 1476 1465 1461 1459 1459 1460 1462 1465 1468 1471 1474 1477 1481 1484 1488 1491 1494 1497 1500 1503 1506 1509 1511 1514 1517 1519 1522 1524 1526 1529 1530 1532 1533 1533 1534 1535 1535 1535 1536 1536 1535
1494 1496 1495 1499 1499 1498 1491 1481 1471 1462 1460 1459 1458 1459 1461 1463 1465 1468 1470 1474 1477 1481 1484 1488 1491 1493 1496 1499 1502 1505 1508 1510 1513 1516 1518 1520 1523 1524 1526 1527 1529 1529 1530 1530 1530 1530 1530 1530 1530
1492 1493 1497 1499 1497 1494 1488 1483 1478 1468 1464 1461 1460 1459 1460 1462 1464 1466 1468 1471 1474 1477 1481 1484 1487 1490 1493 1496 1498 1501 1503 1506 1509 1512 1514 1516 1518 1520 1521 1523 1524 1525 1525 1526 1526 1525 1525 1525 1525
1493 1494 1494 1496 1496 1495 1491 1486 1471 1469 1464 1462 1460 1460 1461 1462 1464 1466 1467 1470 1472 1475 1478 1480 1483 1486 1489 1492 1495 1497 1500 1502 1504 1507 1509 1512 1514 1515 1517 1518 1519 1520 1520 1520 1520 1520 1520 1520 1520
1489 1490 1493 1496 1495 1494 1494 1486 1468 1467 1464 1462 1461 1460 1461 1462 1464 1465 1466 1468 1470 1472 1475 1477 1480 1482 1485 1488 1491 1493 1496 1498 1501 1503 1506 1508 1509 1511 1512 1513 1514 1515 1515 1515 1515 1515 1515 1515 1515